Weather in San Miguel de Cozumel

Mexico     20°29′59″N   86°57′15″W
temp.,
°C
wind,
m/s
gust,
m/s
humid.,
%
clouds,
%
prec.,
mm/h
press.,
hPa
HPBL,
m
12 may, wed
wed1201:00+27ese58822 0.1 1014658
04:00+27ese477915 0.0 1013697
07:00+27ese47825 0.3 1015578
10:00+29ese57705 0.1 1016936
13:00+30ese466660 0.2 1015668
16:00+30ese56676 0.1 1014756
19:00+27ese46800 0.5 1015551
22:00+27ese478060 0.0 1015668
13 may, thu
thu1301:00+27ese47797 0.0 1015623
04:00+27ese468078 0.0 1014505
07:00+27e478272 0.0 1015546
10:00+29ene567083 0.1 1017856
13:00+30ene556463 0.1 1016753
16:00+30e446481 0.0 1015651
19:00+28ese4573100 0.0 1015600
22:00+27e347952 0.0 1017365
14 may, fri
fri1401:00+26ene358197 0.6 1016339
04:00+26ne358262 0.0 1015317
07:00+26ene3679100 0.0 1016536
10:00+28ne5568100 0.1 10171056
13:00+29ne656792 0.3 1016879
16:00+29ene6666100 0.3 1015773
19:00+28ene577271 0.3 1015782
22:00+27ene587599 0.0 1017682
15 may, sat
sat1501:00+27ene467713 0.0 1016593
04:00+26ene46806 0.0 1015499
07:00+26ne357910 0.0 1016468
10:00+28ene55707 0.1 1017967
13:00+29ene55665 0.4 1016834
16:00+29ene55687 0.1 1014726
19:00+27e55764 0.5 1015686
22:00+26e46811 0.3 1016442
16 may, sun
sun1601:00+26e478120 0.4 1015473
04:00+26ese46787 0.0 1014504
07:00+27e36772 0.1 1015486
10:00+29e556981 0.1 1016899
13:00+29ene4565100 1.1 1016797
16:00+29ene556638 0.7 1014866
19:00+28e5673100 0.8 1015786
22:00+27e477887 0.0 1016523